Date String (YYYY-MM-DD hh:mm:ss) UTC,Instrument flags,Ambient pressure (hPa),Sample flow (lpm),Bypass flow (lpm),Sample temperature (°C),Ambient temperature (°C),ASC tube jacket temperature (°C),LED temperature (°C),Box temperature (°C),Sample RH (%),Span deviation,Mass concentration (μg/m³),Mass concentration (μg/m³),Mass concentration (μg/m³)
DateTimeUTC,F1_M11,P_M11,Q1_M11,Q2_M11,T1_M11,T2_M11,T3_M11,T4_M11,T5_M11,U1_M11,ZSPAN_M11,X0_M11,X2_M11,X1_M11
2023-05-26 20:00:00,,0830.6,5.01,0.00,29.6,28.3,00.0,37.8,31.3,28.2,0001.7,0011.04,0005.67,0005.08
2023-05-26 20:01:00,,0830.5,5.00,0.00,29.6,28.3,00.0,37.9,31.3,28.2,0001.6,0011.08,0005.68,0005.07
2023-05-26 20:02:00,,0830.4,5.00,0.00,29.6,27.9,00.0,37.8,31.3,27.5,0001.1,0010.99,0005.67,0005.06
2023-05-26 20:03:00,,0830.4,4.98,0.00,29.6,26.3,00.0,37.8,31.1,27.7,0001.3,0010.75,0005.64,0005.05
2023-05-26 20:04:00,,0830.3,5.01,0.00,29.5,25.6,00.0,37.7,30.9,27.4,0001.1,0010.36,0005.57,0005.01
2023-05-26 20:05:00,,0830.2,5.01,0.00,29.4,25.6,00.0,37.7,30.8,27.2,0001.6,0010.30,0005.49,0004.93
2023-05-26 20:06:00,,0830.2,5.00,0.00,29.4,25.9,00.0,37.7,30.8,27.5,0001.3,0009.77,0005.38,0004.86
2023-05-26 20:07:00,,0830.1,4.99,0.00,29.3,26.3,00.0,37.7,30.8,26.8,0000.8,0009.46,0005.29,0004.76
2023-05-26 20:08:00,,0830.0,4.99,0.00,29.3,26.6,00.0,37.7,30.9,26.7,0000.2,0009.17,0005.15,0004.63
2023-05-26 20:09:00,,0830.0,5.00,0.00,29.3,26.8,00.0,37.7,30.9,26.5,0000.0,0009.12,0005.05,0004.50
2023-05-26 20:10:00,,0830.0,5.00,0.00,29.3,27.1,00.0,37.7,30.9,26.7,0000.0,0009.04,0004.96,0004.39
2023-05-26 20:11:00,,0830.0,5.00,0.00,29.3,27.3,00.0,37.7,30.9,26.8,0000.0,0008.95,0004.87,0004.29
2023-05-26 20:12:00,,0830.0,4.99,0.00,29.3,27.4,00.0,37.7,31.0,26.5,0000.0,0008.90,0004.79,0004.20
2023-05-26 20:13:00,,0829.9,5.00,0.00,29.3,27.5,00.0,37.7,31.0,26.5,0000.0,0008.71,0004.69,0004.10
2023-05-26 20:14:00,,0829.9,5.00,0.00,29.4,27.7,00.0,37.7,31.0,27.1,0000.0,0008.80,0004.62,0004.03
2023-05-26 20:15:00,,0829.9,5.00,0.00,29.4,27.7,00.0,37.7,31.1,28.0,0000.0,0008.74,0004.57,0003.97
2023-05-26 20:16:00,,0829.9,5.00,0.00,29.4,27.8,00.0,37.7,31.1,29.1,0000.0,0008.73,0004.57,0003.94
2023-05-26 20:17:00,,0829.9,5.01,0.00,29.4,27.9,00.0,37.7,31.1,29.5,0000.0,0010.04,0004.59,0003.92
2023-05-26 20:18:00,,0829.9,5.00,0.00,29.4,27.9,00.0,37.7,31.1,29.2,0000.0,0010.31,0004.60,0003.92
2023-05-26 20:19:00,,0829.8,5.00,0.00,29.4,27.9,00.0,37.7,31.1,29.2,0000.8,0010.36,0004.63,0003.95
2023-05-26 20:20:00,,0829.8,5.00,0.00,29.4,28.0,00.0,37.7,31.1,28.7,0003.4,0010.38,0004.66,0003.97
2023-05-26 20:21:00,,0829.8,5.00,0.00,29.5,28.0,00.0,37.8,31.1,27.8,0003.0,0010.33,0004.66,0004.00
2023-05-26 20:22:00,,0829.8,5.01,0.00,29.5,28.0,00.0,37.8,31.2,26.9,0003.1,0010.34,0004.69,0004.03
2023-05-26 20:23:00,,0829.9,5.01,0.00,29.5,28.1,00.0,37.8,31.2,25.6,0002.0,0010.59,0004.65,0004.02
2023-05-26 20:24:00,,0829.7,4.99,0.00,29.5,28.1,00.0,37.8,31.2,26.0,0000.0,0010.59,0004.61,0004.02
2023-05-26 20:25:00,,0829.7,5.00,0.00,29.5,28.1,00.0,37.8,31.2,19.2,0000.0,0010.35,0004.46,0003.92
2023-05-26 20:26:00,,0829.7,5.00,0.00,29.5,28.0,00.0,37.8,31.2,18.3,0000.0,0010.57,0004.27,0003.77
2023-05-26 20:27:00,,0829.7,5.00,0.00,29.5,28.0,00.0,37.8,31.2,18.5,0000.0,0010.15,0004.08,0003.61
2023-05-26 20:28:00,,0829.8,5.00,0.00,29.5,28.0,00.0,37.8,31.2,19.2,0000.0,0008.65,0003.91,0003.45
2023-05-26 20:29:00,,0829.8,5.00,0.00,29.5,28.0,00.0,37.8,31.2,19.6,0000.0,0007.94,0003.72,0003.29
2023-05-26 20:30:00,,0829.8,5.00,0.00,29.5,27.9,00.0,37.9,31.2,17.6,0000.0,0007.63,0003.50,0003.08
2023-05-26 20:31:00,,0830.0,4.99,0.00,29.5,27.9,00.0,37.9,31.2,16.8,0000.0,0007.15,0003.25,0002.73
2023-05-26 20:32:00,,0830.0,5.01,0.00,29.5,27.9,00.0,37.9,31.2,17.3,0000.0,0006.45,0002.95,0002.36
2023-05-26 20:33:00,,0830.1,5.01,0.00,29.5,27.9,00.0,37.9,31.2,17.4,0000.0,0006.10,0002.64,0002.04
2023-05-26 20:34:00,,0830.2,5.00,0.00,29.5,27.8,00.0,37.9,31.2,19.2,0000.0,0005.38,0002.34,0001.77
2023-05-26 20:35:00,,0830.2,5.00,0.00,29.5,27.8,00.0,37.9,31.1,20.6,0000.0,0005.41,0002.12,0001.52
2023-05-26 20:36:00,,0830.2,4.99,0.00,29.5,27.8,00.0,37.9,31.2,20.7,0000.0,0005.38,0002.06,0001.43
2023-05-26 20:37:00,,0830.0,4.99,0.00,29.5,27.8,00.0,37.9,31.2,19.8,0000.0,0004.29,0002.08,0001.44
2023-05-26 20:38:00,,0830.0,5.00,0.00,29.5,27.8,00.0,37.9,31.2,20.0,0000.0,0004.32,0002.11,0001.45
2023-05-26 20:39:00,,0830.0,5.01,0.00,29.5,27.7,00.0,37.9,31.2,19.4,0000.0,0004.16,0002.08,0001.44
2023-05-26 20:40:00,,0830.0,5.01,0.00,29.5,27.7,00.0,37.9,31.1,20.5,0000.0,0004.84,0002.06,0001.42
2023-05-26 20:41:00,,0830.0,5.00,0.00,29.5,27.7,00.0,37.9,31.2,18.8,0000.0,0005.10,0002.16,0001.41
2023-05-26 20:42:00,,0830.0,4.99,0.00,29.5,27.7,00.0,37.9,31.1,17.9,0000.0,0005.24,0002.19,0001.41
2023-05-26 20:43:00,,0829.8,4.99,0.00,29.5,27.8,00.0,37.9,31.1,19.5,0000.0,0005.71,0002.20,0001.40
2023-05-26 20:44:00,,0829.7,5.00,0.00,29.5,27.8,00.0,37.9,31.2,20.4,0000.0,0006.44,0002.19,0001.41
2023-05-26 20:45:00,,0829.7,5.00,0.00,29.5,27.8,00.0,37.9,31.2,18.6,0000.0,0007.14,0002.16,0001.39
2023-05-26 20:46:00,,0829.7,5.01,0.00,29.6,27.9,00.0,37.9,31.2,19.2,0000.0,0006.81,0002.07,0001.33
2023-05-26 20:47:00,,0829.8,5.00,0.00,29.6,27.9,00.0,37.9,31.2,19.4,0000.0,0006.72,0002.03,0001.27
2023-05-26 20:48:00,,0829.9,4.99,0.00,29.6,28.0,00.0,37.9,31.2,18.0,0000.0,0006.57,0001.97,0001.23
2023-05-26 20:49:00,,0830.0,4.99,0.00,29.6,28.1,00.0,37.9,31.2,19.1,0000.0,0006.35,0001.88,0001.19
2023-05-26 20:50:00,,0830.2,5.00,0.00,29.6,28.1,00.0,37.9,31.3,19.1,0000.0,0006.25,0001.81,0001.17
2023-05-26 20:51:00,,0830.2,5.00,0.00,29.6,28.2,00.0,38.0,31.3,19.4,0000.0,0005.61,0001.77,0001.14
2023-05-26 20:52:00,,0830.2,5.00,0.00,29.7,28.2,00.0,38.0,31.3,19.7,0000.0,0005.61,0001.71,0001.14
2023-05-26 20:53:00,,0830.3,5.01,0.00,29.7,28.2,00.0,38.0,31.3,19.2,0000.0,0005.65,0001.72,0001.13
2023-05-26 20:54:00,,0830.4,5.00,0.00,29.7,28.3,00.0,38.0,31.3,18.6,0000.0,0005.36,0001.74,0001.13
2023-05-26 20:55:00,,0830.5,4.98,0.00,29.7,28.3,00.0,38.0,31.4,18.4,0000.0,0005.36,0001.75,0001.11
2023-05-26 20:56:00,,0830.6,5.00,0.00,29.7,28.2,00.0,38.0,31.3,17.3,0000.0,0004.50,0001.76,0001.09
2023-05-26 20:57:00,,0830.8,5.00,0.00,29.7,26.7,00.0,37.9,31.2,17.4,0000.0,0004.37,0001.76,0001.09
2023-05-26 20:58:00,,0830.9,5.01,0.00,29.6,25.4,00.0,37.9,31.0,20.3,0000.0,0004.26,0001.76,0001.09
2023-05-26 20:59:00,,0831.1,5.00,0.00,29.5,25.2,00.0,37.8,30.8,20.0,0000.0,0004.25,0001.74,0001.07
